This is the latest recevied weather packets stored in our database for station/object 9A7DI-13. If no packets are shown the sender has not sent any weather packets the latest 10 day(s).
| Time | Temp. | Humidity | Pressure | Rain* | Wind** | Luminosity | Snow |
|---|---|---|---|---|---|---|---|
| 1788051411 | 16.67° C | 86% | 1025.2 hPa | - | - | - | - |
| 1788050811 | 16.67° C | 87% | 1025.2 hPa | - | - | - | - |
| 1788050211 | 16.67° C | 85% | 1025.2 hPa | - | - | - | - |
| 1788049611 | 16.67° C | 87% | 1025.2 hPa | - | - | - | - |
| 1788049011 | 16.67° C | 86% | 1025.1 hPa | - | - | - | - |
| 1788048411 | 16.67° C | 85% | 1025 hPa | - | - | - | - |
| 1788047811 | 17.22° C | 84% | 1025 hPa | - | - | - | - |
| 1788047211 | 17.22° C | 85% | 1025.1 hPa | - | - | - | - |
| 1788046611 | 16.67° C | 85% | 1025.1 hPa | - | - | - | - |
| 1788046011 | 17.22° C | 83% | 1025 hPa | - | - | - | - |
| 1788045411 | 17.22° C | 83% | 1025 hPa | - | - | - | - |
| 1788044811 | 17.78° C | 82% | 1025.1 hPa | - | - | - | - |
| 1788044211 | 17.78° C | 83% | 1024.9 hPa | - | - | - | - |
| 1788043611 | 17.22° C | 82% | 1024.8 hPa | - | - | - | - |
| 1788043011 | 17.78° C | 82% | 1024.8 hPa | - | - | - | - |
| 1788042411 | 17.78° C | 81% | 1024.8 hPa | - | - | - | - |
| 1788041812 | 18.33° C | 80% | 1024.8 hPa | - | - | - | - |
| 1788041212 | 18.33° C | 80% | 1024.7 hPa | - | - | - | - |
| 1788040612 | 18.33° C | 80% | 1024.7 hPa | - | - | - | - |
| 1788040011 | 18.33° C | 80% | 1024.8 hPa | - | - | - | - |
| 1788039411 | 17.78° C | 83% | 1024.8 hPa | - | - | - | - |
| 1788038811 | 18.89° C | 77% | 1024.8 hPa | - | - | - | - |
| 1788038212 | 18.89° C | 78% | 1024.9 hPa | - | - | - | - |
| 1788037612 | 18.89° C | 77% | 1024.9 hPa | - | - | - | - |
| 1788037012 | 18.89° C | 78% | 1024.9 hPa | - | - | - | - |
* Rain since midnight (hover to see other rain measurements)
** Current wind speed in m/s (hover to see current wind gust speed)